Time,TemperatureF,DewpointF,PressureIn,WindDirection,WindDirectionDegrees,WindSpeedMPH,WindSpeedGustMPH,Humidity,HourlyPrecipIn,Conditions,Clouds,dailyrainin,SoftwareType,DateUTC
2013-01-23 00:03:00,11.0,2.0,30.43,WNW,298,5.0,8.0,66,0.00,,,0.00,,2013-01-23 05:03:00,
2013-01-23 00:12:00,11.0,2.0,30.43,WNW,298,5.0,8.0,66,0.00,,,0.00,,2013-01-23 05:12:00,
2013-01-23 00:22:00,11.0,2.0,30.43,WNW,302,5.0,8.0,65,0.00,,,0.00,,2013-01-23 05:22:00,
2013-01-23 00:33:00,11.0,2.0,30.43,WNW,286,5.0,8.0,65,0.00,,,0.00,,2013-01-23 05:33:00,
2013-01-23 00:43:00,11.0,2.0,30.43,WNW,286,5.0,8.0,65,0.00,,,0.00,,2013-01-23 05:43:00,
2013-01-23 00:52:00,12.0,3.0,30.43,WNW,283,5.0,8.0,66,0.00,,,0.00,,2013-01-23 05:52:00,
2013-01-23 01:02:00,12.0,3.0,30.42,West,277,4.0,8.0,66,0.00,,,0.00,,2013-01-23 06:02:00,
2013-01-23 01:12:00,12.0,3.0,30.42,West,277,4.0,8.0,66,0.00,,,0.00,,2013-01-23 06:12:00,
2013-01-23 01:22:00,12.0,3.0,30.43,WNW,283,4.0,7.0,66,0.00,,,0.00,,2013-01-23 06:22:00,
2013-01-23 01:32:00,12.0,3.0,30.43,WNW,288,5.0,8.0,67,0.00,,,0.00,,2013-01-23 06:32:00,
2013-01-23 01:42:00,12.0,3.0,30.43,WNW,288,5.0,8.0,67,0.00,,,0.00,,2013-01-23 06:42:00,
2013-01-23 01:52:00,12.0,3.0,30.43,West,281,3.0,8.0,67,0.00,,,0.00,,2013-01-23 06:52:00,
2013-01-23 02:02:00,12.0,3.0,30.42,WNW,289,4.0,8.0,67,0.00,,,0.00,,2013-01-23 07:02:00,
2013-01-23 02:12:00,12.0,3.0,30.42,WNW,289,4.0,8.0,67,0.00,,,0.00,,2013-01-23 07:12:00,
2013-01-23 02:22:00,12.0,3.0,30.42,WNW,289,4.0,8.0,67,0.00,,,0.00,,2013-01-23 07:22:00,
2013-01-23 02:33:00,12.0,3.0,30.42,WNW,289,4.0,8.0,67,0.00,,,0.00,,2013-01-23 07:33:00,
2013-01-23 02:53:00,10.0,3.0,30.41,WNW,291,0.0,2.0,73,0.00,,,0.00,,2013-01-23 07:53:00,
2013-01-23 03:02:00,9.0,3.0,30.42,WNW,291,0.0,2.0,75,0.00,,,0.00,,2013-01-23 08:02:00,
2013-01-23 03:13:00,9.0,3.0,30.42,WNW,291,0.0,2.0,75,0.00,,,0.00,,2013-01-23 08:13:00,
2013-01-23 03:22:00,9.0,3.0,30.41,WNW,291,0.0,0.0,75,0.00,,,0.00,,2013-01-23 08:22:00,
2013-01-23 03:33:00,9.0,3.0,30.41,WNW,291,0.0,0.0,76,0.00,,,0.00,,2013-01-23 08:33:00,
2013-01-23 03:42:00,9.0,3.0,30.41,WNW,291,0.0,0.0,76,0.00,,,0.00,,2013-01-23 08:42:00,
2013-01-23 03:52:00,9.0,3.0,30.41,WNW,291,0.0,0.0,76,0.00,,,0.00,,2013-01-23 08:52:00,
2013-01-23 04:03:00,10.0,4.0,30.41,WNW,291,0.0,0.0,76,0.00,,,0.00,,2013-01-23 09:03:00,
2013-01-23 04:12:00,10.0,4.0,30.41,WNW,291,0.0,0.0,76,0.00,,,0.00,,2013-01-23 09:12:00,
2013-01-23 04:22:00,10.0,4.0,30.41,WNW,291,0.0,1.0,77,0.00,,,0.00,,2013-01-23 09:22:00,
2013-01-23 04:32:00,11.0,4.0,30.41,West,260,1.0,3.0,74,0.00,,,0.00,,2013-01-23 09:32:00,
2013-01-23 04:43:00,11.0,4.0,30.41,West,260,1.0,3.0,74,0.00,,,0.00,,2013-01-23 09:43:00,
2013-01-23 04:52:00,12.0,5.0,30.40,West,278,0.0,2.0,73,0.00,,,0.00,,2013-01-23 09:52:00,
2013-01-23 05:03:00,12.0,4.0,30.39,West,266,1.0,3.0,70,0.00,,,0.00,,2013-01-23 10:03:00,
2013-01-23 05:12:00,12.0,4.0,30.39,West,266,1.0,3.0,70,0.00,,,0.00,,2013-01-23 10:12:00,
2013-01-23 05:23:00,12.0,4.0,30.39,WSW,252,1.0,5.0,70,0.00,,,0.00,,2013-01-23 10:23:00,
2013-01-23 05:33:00,12.0,4.0,30.39,WSW,253,1.0,5.0,69,0.00,,,0.00,,2013-01-23 10:33:00,
2013-01-23 05:43:00,12.0,4.0,30.39,WSW,253,1.0,5.0,69,0.00,,,0.00,,2013-01-23 10:43:00,
2013-01-23 05:52:00,12.0,4.0,30.39,WSW,258,3.0,6.0,69,0.00,,,0.00,,2013-01-23 10:52:00,
2013-01-23 06:02:00,12.0,4.0,30.39,WSW,250,3.0,6.0,70,0.00,,,0.00,,2013-01-23 11:02:00,
2013-01-23 06:12:00,12.0,4.0,30.39,WSW,250,3.0,6.0,70,0.00,,,0.00,,2013-01-23 11:12:00,
2013-01-23 06:23:00,13.0,4.0,30.39,West,277,3.0,6.0,68,0.00,,,0.00,,2013-01-23 11:23:00,
2013-01-23 06:33:00,13.0,4.0,30.38,WSW,252,3.0,6.0,68,0.00,,,0.00,,2013-01-23 11:33:00,
2013-01-23 06:43:00,13.0,4.0,30.38,WSW,252,3.0,6.0,68,0.00,,,0.00,,2013-01-23 11:43:00,
2013-01-23 06:53:00,13.0,4.0,30.38,West,274,2.0,5.0,67,0.00,,,0.00,,2013-01-23 11:53:00,
2013-01-23 07:03:00,13.0,4.0,30.37,West,269,2.0,5.0,67,0.00,,,0.00,,2013-01-23 12:03:00,
2013-01-23 07:12:00,13.0,4.0,30.37,West,269,2.0,5.0,67,0.00,,,0.00,,2013-01-23 12:12:00,
2013-01-23 07:22:00,13.0,4.0,30.37,West,264,2.0,5.0,68,0.00,,,0.00,,2013-01-23 12:22:00,
2013-01-23 07:33:00,13.0,4.0,30.38,WSW,250,3.0,5.0,68,0.00,,,0.00,,2013-01-23 12:33:00,
2013-01-23 07:43:00,13.0,4.0,30.38,WSW,250,3.0,5.0,68,0.00,,,0.00,,2013-01-23 12:43:00,
2013-01-23 07:53:00,13.0,4.0,30.37,WSW,245,1.0,5.0,67,0.00,,,0.00,,2013-01-23 12:53:00,
2013-01-23 08:03:00,13.0,4.0,30.37,WSW,257,1.0,5.0,66,0.00,,,0.00,,2013-01-23 13:03:00,
2013-01-23 08:13:00,13.0,4.0,30.37,WSW,257,1.0,5.0,66,0.00,,,0.00,,2013-01-23 13:13:00,
2013-01-23 08:23:00,13.0,4.0,30.37,WSW,257,1.0,5.0,66,0.00,,,0.00,,2013-01-23 13:23:00,
2013-01-23 08:33:00,13.0,4.0,30.37,WSW,241,2.0,6.0,67,0.00,,,0.00,,2013-01-23 13:33:00,
2013-01-23 08:43:00,13.0,4.0,30.37,WSW,241,2.0,6.0,67,0.00,,,0.00,,2013-01-23 13:43:00,
2013-01-23 08:53:00,13.0,4.0,30.36,SW,225,2.0,5.0,67,0.00,,,0.00,,2013-01-23 13:53:00,
2013-01-23 09:03:00,14.0,5.0,30.36,West,262,2.0,6.0,67,0.00,,,0.00,,2013-01-23 14:03:00,
2013-01-23 09:12:00,14.0,5.0,30.36,West,262,2.0,6.0,67,0.00,,,0.00,,2013-01-23 14:12:00,
2013-01-23 09:23:00,14.0,4.0,30.36,SSW,196,2.0,7.0,65,0.00,,,0.00,,2013-01-23 14:23:00,
2013-01-23 09:33:00,14.0,4.0,30.37,SW,227,2.0,11.0,65,0.00,,,0.00,,2013-01-23 14:33:00,
2013-01-23 09:43:00,14.0,4.0,30.37,SW,227,2.0,11.0,65,0.00,,,0.00,,2013-01-23 14:43:00,
2013-01-23 09:53:00,14.0,4.0,30.36,SW,236,3.0,8.0,63,0.00,,,0.00,,2013-01-23 14:53:00,
2013-01-23 10:03:00,15.0,4.0,30.35,WSW,244,3.0,7.0,62,0.00,,,0.00,,2013-01-23 15:03:00,
2013-01-23 10:12:00,15.0,4.0,30.35,WSW,244,3.0,7.0,62,0.00,,,0.00,,2013-01-23 15:12:00,
2013-01-23 10:23:00,15.0,5.0,30.36,WSW,257,3.0,7.0,63,0.00,,,0.00,,2013-01-23 15:23:00,
2013-01-23 10:33:00,15.0,5.0,30.35,South,184,3.0,6.0,63,0.00,,,0.00,,2013-01-23 15:33:00,
2013-01-23 10:43:00,15.0,5.0,30.35,South,184,3.0,6.0,63,0.00,,,0.00,,2013-01-23 15:43:00,
2013-01-23 10:53:00,16.0,6.0,30.35,SW,224,2.0,6.0,65,0.00,,,0.00,,2013-01-23 15:53:00,
2013-01-23 11:03:00,16.0,7.0,30.35,SW,234,2.0,8.0,67,0.00,,,0.00,,2013-01-23 16:03:00,
2013-01-23 11:12:00,16.0,7.0,30.35,SW,234,2.0,8.0,67,0.00,,,0.00,,2013-01-23 16:12:00,
2013-01-23 11:23:00,16.0,7.0,30.36,WSW,256,5.0,9.0,68,0.00,,,0.00,,2013-01-23 16:23:00,
2013-01-23 11:33:00,17.0,9.0,30.36,WSW,243,6.0,13.0,69,0.00,,,0.00,,2013-01-23 16:33:00,
2013-01-23 11:42:00,17.0,9.0,30.36,WSW,243,6.0,13.0,69,0.00,,,0.00,,2013-01-23 16:42:00,
2013-01-23 11:52:00,17.0,10.0,30.35,SSW,207,3.0,7.0,73,0.00,,,0.00,,2013-01-23 16:52:00,
2013-01-23 12:03:00,17.0,11.0,30.34,SW,236,3.0,8.0,76,0.00,,,0.00,,2013-01-23 17:03:00,
2013-01-23 12:12:00,17.0,11.0,30.34,SW,236,3.0,8.0,76,0.00,,,0.00,,2013-01-23 17:12:00,
2013-01-23 12:23:00,17.0,8.0,30.33,SSW,200,4.0,8.0,68,0.00,,,0.00,,2013-01-23 17:23:00,
2013-01-23 12:33:00,18.0,7.0,30.32,SW,232,5.0,11.0,62,0.00,,,0.00,,2013-01-23 17:33:00,
2013-01-23 12:42:00,18.0,7.0,30.32,SW,232,5.0,11.0,62,0.00,,,0.00,,2013-01-23 17:42:00,
2013-01-23 12:52:00,18.0,6.0,30.32,WSW,257,5.0,9.0,60,0.00,,,0.00,,2013-01-23 17:52:00,
2013-01-23 13:03:00,19.0,7.0,30.31,West,277,4.0,9.0,59,0.00,,,0.00,,2013-01-23 18:03:00,
2013-01-23 13:12:00,19.0,7.0,30.31,West,277,4.0,9.0,59,0.00,,,0.00,,2013-01-23 18:12:00,
2013-01-23 13:23:00,19.0,7.0,30.29,SW,215,5.0,12.0,58,0.00,,,0.00,,2013-01-23 18:23:00,
2013-01-23 13:33:00,19.0,7.0,30.29,SW,215,5.0,12.0,58,0.00,,,0.00,,2013-01-23 18:33:00,
2013-01-23 13:43:00,19.0,5.0,30.27,SW,232,3.0,8.0,54,0.00,,,0.00,,2013-01-23 18:43:00,
2013-01-23 13:53:00,20.0,6.0,30.26,West,262,5.0,9.0,53,0.00,,,0.00,,2013-01-23 18:53:00,
2013-01-23 14:03:00,20.0,6.0,30.25,WSW,257,4.0,9.0,53,0.00,,,0.00,,2013-01-23 19:03:00,
2013-01-23 14:13:00,20.0,6.0,30.25,WSW,257,4.0,9.0,53,0.00,,,0.00,,2013-01-23 19:13:00,
2013-01-23 14:23:00,20.0,6.0,30.24,SW,230,5.0,9.0,53,0.00,,,0.00,,2013-01-23 19:23:00,
2013-01-23 14:33:00,20.0,7.0,30.23,WSW,240,3.0,8.0,56,0.00,,,0.00,,2013-01-23 19:33:00,
2013-01-23 14:43:00,20.0,7.0,30.23,WSW,240,3.0,8.0,56,0.00,,,0.00,,2013-01-23 19:43:00,
2013-01-23 14:53:00,20.0,7.0,30.22,WSW,257,5.0,8.0,56,0.00,,,0.00,,2013-01-23 19:53:00,
2013-01-23 15:03:00,20.0,7.0,30.22,SW,225,3.0,10.0,57,0.00,,,0.00,,2013-01-23 20:03:00,
2013-01-23 15:13:00,20.0,7.0,30.22,SW,225,3.0,10.0,57,0.00,,,0.00,,2013-01-23 20:13:00,
2013-01-23 15:23:00,21.0,9.0,30.22,SW,236,5.0,10.0,58,0.00,,,0.00,,2013-01-23 20:23:00,
2013-01-23 15:33:00,21.0,9.0,30.21,SSW,213,4.0,9.0,58,0.00,,,0.00,,2013-01-23 20:33:00,
2013-01-23 15:43:00,21.0,9.0,30.21,SSW,213,4.0,9.0,58,0.00,,,0.00,,2013-01-23 20:43:00,
2013-01-23 15:53:00,21.0,9.0,30.21,SSW,202,3.0,10.0,60,0.00,,,0.00,,2013-01-23 20:53:00,
2013-01-23 16:03:00,21.0,9.0,30.21,SW,234,3.0,8.0,60,0.00,,,0.00,,2013-01-23 21:03:00,
2013-01-23 16:12:00,21.0,9.0,30.21,SW,234,3.0,8.0,60,0.00,,,0.00,,2013-01-23 21:12:00,
2013-01-23 16:23:00,21.0,10.0,30.20,WSW,254,3.0,8.0,62,0.00,,,0.00,,2013-01-23 21:23:00,
2013-01-23 16:33:00,22.0,11.0,30.20,SW,228,3.0,9.0,62,0.00,,,0.00,,2013-01-23 21:33:00,
2013-01-23 16:43:00,22.0,11.0,30.20,SW,228,3.0,9.0,62,0.00,,,0.00,,2013-01-23 21:43:00,
2013-01-23 16:52:00,22.0,11.0,30.19,WSW,251,3.0,8.0,62,0.00,,,0.00,,2013-01-23 21:52:00,
2013-01-23 17:02:00,22.0,11.0,30.19,WSW,251,3.0,8.0,62,0.00,,,0.00,,2013-01-23 22:02:00,
2013-01-23 17:12:00,22.0,11.0,30.19,WSW,251,3.0,8.0,62,0.00,,,0.00,,2013-01-23 22:12:00,
2013-01-23 17:23:00,23.0,12.0,30.19,West,271,2.0,5.0,62,0.00,,,0.00,,2013-01-23 22:23:00,
2013-01-23 17:33:00,23.0,12.0,30.18,West,261,2.0,6.0,63,0.00,,,0.00,,2013-01-23 22:33:00,
2013-01-23 17:42:00,23.0,12.0,30.18,West,261,2.0,6.0,63,0.00,,,0.00,,2013-01-23 22:42:00,
2013-01-23 17:53:00,23.0,12.0,30.17,SW,236,0.0,3.0,63,0.00,,,0.00,,2013-01-23 22:53:00,
2013-01-23 18:03:00,23.0,12.0,30.18,West,267,1.0,3.0,63,0.00,,,0.00,,2013-01-23 23:03:00,
2013-01-23 18:12:00,23.0,12.0,30.18,West,267,1.0,3.0,63,0.00,,,0.00,,2013-01-23 23:12:00,
2013-01-23 18:23:00,23.0,13.0,30.18,WSW,240,0.0,3.0,65,0.00,,,0.00,,2013-01-23 23:23:00,
2013-01-23 18:33:00,23.0,13.0,30.18,WSW,240,0.0,3.0,65,0.00,,,0.00,,2013-01-23 23:33:00,
2013-01-23 18:43:00,23.0,13.0,30.18,WSW,240,0.0,3.0,65,0.00,,,0.00,,2013-01-23 23:43:00,
2013-01-23 18:53:00,23.0,14.0,30.18,West,261,0.0,3.0,67,0.00,,,0.00,,2013-01-23 23:53:00,
2013-01-23 19:03:00,23.0,14.0,30.18,West,261,0.0,1.0,68,0.00,,,0.00,,2013-01-24 00:03:00,
2013-01-23 19:12:00,23.0,14.0,30.18,West,261,0.0,1.0,68,0.00,,,0.00,,2013-01-24 00:12:00,
2013-01-23 19:22:00,23.0,14.0,30.18,West,261,0.0,1.0,68,0.00,,,0.00,,2013-01-24 00:22:00,
2013-01-23 19:32:00,23.0,15.0,30.17,West,261,0.0,0.0,71,0.00,,,0.00,,2013-01-24 00:32:00,
2013-01-23 19:42:00,23.0,15.0,30.17,West,261,0.0,0.0,71,0.00,,,0.00,,2013-01-24 00:42:00,
2013-01-23 19:53:00,23.0,15.0,30.17,West,261,0.0,0.0,71,0.00,,,0.00,,2013-01-24 00:53:00,
2013-01-23 20:03:00,22.0,15.0,30.18,West,261,0.0,0.0,73,0.00,,,0.00,,2013-01-24 01:03:00,
2013-01-23 20:12:00,22.0,15.0,30.18,West,261,0.0,0.0,73,0.00,,,0.00,,2013-01-24 01:12:00,
2013-01-23 20:23:00,21.0,14.0,30.18,West,265,0.0,2.0,74,0.00,,,0.00,,2013-01-24 01:23:00,
2013-01-23 20:33:00,22.0,15.0,30.18,NW,312,1.0,3.0,74,0.00,,,0.00,,2013-01-24 01:33:00,
2013-01-23 20:42:00,22.0,15.0,30.18,NW,312,1.0,3.0,74,0.00,,,0.00,,2013-01-24 01:42:00,
2013-01-23 20:52:00,22.0,16.0,30.18,NW,312,0.0,2.0,76,0.00,,,0.00,,2013-01-24 01:52:00,
2013-01-23 21:02:00,22.0,16.0,30.19,NW,312,1.0,2.0,77,0.00,,,0.00,,2013-01-24 02:02:00,
2013-01-23 21:12:00,22.0,16.0,30.19,NW,312,1.0,2.0,77,0.00,,,0.00,,2013-01-24 02:12:00,
2013-01-23 21:22:00,22.0,15.0,30.20,NW,308,4.0,7.0,73,0.00,,,0.00,,2013-01-24 02:22:00,
2013-01-23 21:33:00,22.0,14.0,30.21,NW,310,7.0,11.0,71,0.00,,,0.00,,2013-01-24 02:33:00,
2013-01-23 21:42:00,22.0,14.0,30.21,NW,310,7.0,11.0,71,0.00,,,0.00,,2013-01-24 02:42:00,
2013-01-23 21:52:00,22.0,14.0,30.21,NW,310,7.0,11.0,71,0.00,,,0.00,,2013-01-24 02:52:00,
2013-01-23 22:02:00,21.0,13.0,30.21,NNW,333,5.0,10.0,70,0.00,,,0.00,,2013-01-24 03:02:00,
2013-01-23 22:12:00,21.0,13.0,30.21,NNW,333,5.0,10.0,70,0.00,,,0.00,,2013-01-24 03:12:00,
2013-01-23 22:22:00,20.0,12.0,30.22,NNW,343,4.0,7.0,71,0.00,,,0.00,,2013-01-24 03:22:00,
2013-01-23 22:33:00,19.0,12.0,30.22,NW,324,4.0,9.0,73,0.00,,,0.00,,2013-01-24 03:33:00,
2013-01-23 22:43:00,19.0,12.0,30.22,NW,324,4.0,9.0,73,0.00,,,0.00,,2013-01-24 03:43:00,
2013-01-23 22:52:00,20.0,13.0,30.23,North,350,5.0,8.0,74,0.00,,,0.00,,2013-01-24 03:52:00,
2013-01-23 23:02:00,20.0,15.0,30.24,North,5,7.0,15.0,82,0.00,,,0.00,,2013-01-24 04:02:00,
2013-01-23 23:12:00,20.0,15.0,30.24,North,5,7.0,15.0,82,0.00,,,0.00,,2013-01-24 04:12:00,
2013-01-23 23:22:00,20.0,16.0,30.24,NW,324,6.0,12.0,83,0.00,,,0.00,,2013-01-24 04:22:00,
2013-01-23 23:32:00,20.0,16.0,30.26,NNW,335,8.0,13.0,85,0.00,,,0.00,,2013-01-24 04:32:00,
2013-01-23 23:42:00,20.0,16.0,30.26,NNW,335,8.0,13.0,85,0.00,,,0.00,,2013-01-24 04:42:00,
2013-01-23 23:52:00,20.0,15.0,30.26,NW,325,8.0,16.0,82,0.00,,,0.00,,2013-01-24 04:52:00,